Wind_Speed
12 14 15 17 18 19 20 22 23 24 26 27 28 30 32 35 37 39 39 39 39 37 35 33 31 29 27 24 22 20 15 12 7 8 13 21 19 21 27 30 31 35 31 28 20
12 13 13 14 15 16 17 18 20 21 22 24 25 26 26 28 31 33 36 38 40 40 39 36 36 34 30 28 26 23 19 16 15 13 11 19 16 21 23 27 27 31 32 26 22
13 13 14 15 16 18 17 19 21 22 22 22 24 25 26 27 28 30 32 34 35 37 38 39 39 38 35 32 30 27 24 22 18 12 13 17 23 23 19 23 22 25 29 24 23
14 15 15 17 18 19 20 20 20 22 23 24 24 24 25 26 26 27 29 30 33 34 33 33 35 39 38 36 32 29 29 28 18 15 24 26 24 20 14 20 20 17 26 26 16
16 16 17 18 20 21 22 22 22 22 23 24 25 26 26 26 28 28 29 29 30 32 29 27 29 33 35 34 34 31 29 28 25 20 21 23 24 14 14 12 15 15 20 22 20
17 17 18 19 21 22 23 23 24 25 25 26 28 30 31 30 31 30 31 32 31 31 29 26 25 27 29 31 33 32 30 28 26 23 19 19 23 19 11 10 13 13 16 19 22
18 18 19 20 21 22 22 23 23 23 25 27 29 31 31 33 33 33 34 34 34 32 28 26 24 24 23 26 28 29 31 30 28 24 21 21 20 14 14 13 11 15 14 15 17
19 19 19 20 20 21 22 22 22 21 23 26 27 27 27 28 30 33 37 37 37 37 31 29 26 24 23 23 24 26 24 25 30 30 28 20 16 21 17 17 7 19 10 10 13
18 18 19 21 20 21 20 21 21 22 26 26 25 25 25 26 27 29 33 38 41 40 35 32 29 26 25 21 23 25 23 29 27 35 36 31 20 23 21 20 16 18 10 6 10
18 18 17 19 21 21 21 22 23 24 25 23 25 26 25 26 27 28 29 32 37 41 41 37 33 30 27 19 22 25 27 27 32 33 37 34 29 23 27 25 22 22 15 13 5
19 18 17 18 20 21 22 22 23 23 24 19 23 20 18 19 20 24 28 31 33 35 39 41 38 34 31 28 18 37 29 29 29 29 34 38 31 28 32 27 25 22 21 20 10
18 19 18 18 19 20 21 22 23 23 22 16 16 12 13 14 16 20 23 27 30 32 32 38 43 41 39 37 36 24 32 29 25 25 28 36 47 41 30 32 28 25 23 23 15
19 20 20 20 20 21 23 25 23 18 16 14 11 9 10 13 16 20 23 23 23 28 30 33 39 46 45 42 44 42 35 30 28 24 22 25 27 35 39 37 32 36 31 28 20
22 21 21 21 21 22 21 19 14 12 13 13 14 14 16 16 18 22 21 18 18 20 26 30 35 42 46 46 45 41 37 35 32 29 18 26 18 21 36 41 40 33 33 30 26
19 22 21 20 18 17 16 17 16 14 12 13 17 19 18 18 21 23 23 18 16 17 20 26 29 34 40 45 45 41 42 40 39 36 39 33 39 24 26 29 33 38 36 32 27
18 19 18 19 19 19 20 20 20 20 20 19 18 22 22 22 23 24 24 20 16 16 18 21 25 28 34 40 45 47 46 44 42 39 39 37 40 38 36 32 31 30 39 35 32
23 21 22 22 22 24 26 24 25 27 26 26 25 26 27 25 23 23 22 22 18 15 17 20 24 27 31 36 38 42 45 45 45 44 43 44 44 39 39 37 34 33 30 40 38
23 21 22 24 27 29 29 28 30 31 29 29 29 28 25 22 23 23 21 20 19 16 16 19 22 25 28 31 34 38 39 42 46 47 46 46 46 42 43 40 38 36 35 33 39
30 30 27 26 27 28 28 28 27 28 27 28 28 28 26 26 27 22 21 20 19 17 17 18 19 22 26 28 32 34 37 38 39 43 45 47 47 46 44 44 41 40 40 38 36
31 28 28 32 34 32 29 30 28 28 29 30 32 28 29 30 27 24 23 22 19 18 15 18 20 20 23 26 28 30 32 35 37 38 40 41 43 46 46 46 46 44 43 43 41
31 34 30 30 31 30 30 32 34 32 31 31 36 35 35 28 27 25 24 22 20 18 16 16 18 20 22 25 26 28 30 32 34 35 36 37 40 38 43 46 47 46 48 47 46
33 36 37 37 38 39 39 35 35 32 34 30 33 31 31 32 30 25 24 23 22 21 19 17 14 19 22 24 26 27 30 31 32 32 35 35 37 34 36 37 41 44 48 50 51
36 36 37 38 35 34 33 33 35 37 38 39 39 39 36 35 32 33 31 25 24 24 22 21 17 16 19 22 24 25 25 26 27 30 28 28 33 31 34 36 37 40 43 48 53
36 36 39 37 36 35 34 33 34 32 29 30 32 29 32 32 35 35 32 30 28 24 25 25 25 23 24 22 24 26 27 28 29 29 30 30 33 28 33 34 35 40 41 45 50
36 41 41 37 37 37 37 37 37 35 34 31 31 30 28 31 31 28 30 32 36 31 25 28 29 29 30 29 30 31 32 33 34 35 34 33 31 32 29 31 37 39 43 46 48
43 46 48 43 43 44 43 43 43 43 42 42 41 39 37 37 34 26 33 33 39 38 33 29 33 32 34 32 31 33 34 32 31 35 35 35 35 30 29 30 35 40 43 45 47
51 50 48 49 50 51 51 51 53 51 51 54 48 49 48 44 39 40 36 37 37 41 41 34 34 35 35 34 35 36 36 32 35 36 37 38 38 34 30 31 33 32 37 45 48
Wind_Direction
245 243 242 242 242 239 240 241 241 244 245 246 246 247 247 249 249 249 248 250 251 249 248 246 243 241 241 242 244 249 242 244 238 297 305 298 298 305 327 344 1 1 19 35 54
236 235 236 236 234 235 236 238 239 238 239 242 244 247 248 250 252 253 250 250 250 249 250 246 246 244 241 240 240 243 242 233 231 228 266 271 279 296 323 337 358 10 16 34 47
239 234 233 236 235 234 234 235 235 236 235 236 238 240 243 244 247 251 253 253 252 251 250 250 246 244 242 240 236 236 236 237 231 224 240 235 260 278 322 322 351 10 15 32 44
242 242 239 237 239 239 239 241 242 242 241 241 240 241 242 243 244 247 249 251 254 252 250 248 248 246 242 241 237 234 236 234 228 205 216 238 269 286 315 319 338 16 16 20 47
242 243 245 246 247 248 249 251 252 251 252 250 250 248 249 248 247 246 249 250 252 255 252 249 247 246 244 242 238 233 231 234 228 217 222 245 260 242 292 313 330 7 11 15 31
246 246 248 252 256 257 257 258 259 260 261 261 259 256 252 250 250 249 248 250 251 251 252 249 248 245 244 242 239 233 229 230 226 217 212 226 253 238 267 288 306 351 2 12 19
251 252 255 260 263 266 269 270 270 270 270 267 263 260 258 255 251 246 246 247 247 249 247 246 244 246 243 243 239 235 229 227 226 214 210 230 209 249 269 268 298 322 342 2 5
253 255 260 267 271 273 275 277 277 276 272 268 268 270 268 264 259 251 247 245 245 245 245 242 240 240 238 239 242 237 228 220 222 212 208 192 225 252 245 246 272 300 321 350 347
257 261 262 266 271 272 275 277 278 274 270 273 277 276 275 272 266 260 251 246 245 244 242 241 238 239 237 244 256 246 229 212 211 211 215 212 215 222 221 232 266 268 284 313 329
256 260 264 268 268 271 272 274 277 278 280 283 281 281 280 277 273 266 257 250 245 243 241 238 237 232 232 227 266 233 235 214 213 213 211 212 207 218 223 241 253 260 283 282 291
259 262 262 269 270 271 275 279 282 287 290 292 282 290 287 287 280 271 264 256 249 245 241 237 233 229 226 216 243 242 239 229 217 217 215 207 193 217 238 247 232 235 267 275 279
259 266 266 271 274 276 279 280 286 294 293 287 283 293 294 298 296 285 276 264 255 249 242 236 231 226 223 215 212 223 229 229 224 220 220 214 216 222 228 228 229 225 250 264 263
258 267 270 272 274 277 282 288 294 294 292 280 285 287 308 318 321 310 292 274 261 250 243 236 229 226 224 223 223 230 231 230 225 220 222 228 230 229 224 219 229 230 241 252 244
265 266 273 278 281 285 286 289 291 291 287 281 282 289 301 308 321 326 311 286 268 253 240 236 230 228 226 225 228 230 231 229 227 223 241 223 206 277 238 226 223 226 240 240 235
277 281 283 285 284 282 283 285 290 291 286 280 287 296 307 306 316 325 324 306 279 260 245 235 230 227 226 227 229 229 230 229 228 225 222 224 209 229 231 234 233 230 229 225 224
284 282 283 283 280 280 280 284 285 289 291 287 289 292 298 303 312 321 324 320 293 268 252 239 230 228 226 225 227 228 229 229 229 229 232 232 233 235 239 236 232 233 225 221 216
278 273 279 281 285 281 276 272 278 290 288 287 291 294 295 298 306 314 315 321 310 282 259 244 234 229 226 225 226 230 231 233 233 233 232 234 235 230 234 235 235 237 235 228 223
285 292 285 286 288 283 281 284 286 284 286 283 289 288 293 293 306 304 308 315 317 293 271 251 238 231 228 228 226 228 230 231 234 235 235 238 239 235 236 235 233 233 233 233 230
283 279 274 280 284 286 283 280 280 282 285 287 287 288 289 297 306 305 292 302 310 300 274 262 248 237 231 228 227 228 228 230 233 233 236 239 239 239 239 238 236 233 232 230 231
283 279 284 285 282 273 272 275 277 280 280 278 274 280 288 294 293 298 299 286 294 296 279 261 254 244 234 231 232 232 230 229 232 234 236 237 239 240 241 240 238 234 233 232 228
275 277 278 278 275 273 272 278 273 269 269 264 273 282 289 290 288 286 286 288 281 284 277 261 249 248 239 231 226 230 233 233 233 233 235 235 237 238 237 238 239 237 236 232 230
275 274 276 278 282 276 272 271 266 268 275 276 275 280 280 286 282 282 276 280 278 271 272 263 249 245 239 234 229 227 229 230 232 234 236 239 241 239 239 239 242 241 238 235 233
273 274 271 279 273 271 269 268 266 264 265 268 270 272 272 275 272 278 277 266 276 268 263 262 256 244 236 234 227 225 225 226 228 237 240 242 246 240 243 244 245 245 242 239 234
271 272 277 278 271 269 267 266 267 269 268 272 266 265 268 271 272 270 270 263 266 272 256 253 252 243 243 237 231 232 234 237 242 241 239 241 252 250 260 259 254 250 242 239 240
274 276 278 271 268 266 265 264 266 265 265 265 269 273 277 282 275 264 262 273 263 270 259 245 246 245 243 240 240 240 239 239 243 243 239 242 249 259 262 266 263 258 254 244 236
274 277 277 271 267 268 265 265 266 264 266 268 269 272 273 274 272 281 258 268 257 259 263 261 243 243 244 245 245 239 240 243 243 242 241 243 252 255 268 269 270 266 258 252 243
274 272 272 271 270 268 269 269 267 267 266 266 267 269 267 269 276 269 263 256 261 259 263 262 250 241 244 241 240 238 238 241 244 247 246 249 255 257 273 274 278 277 261 250 248
Height
10922 10923 10924 10924 10925 10926 10927 10929 10930 10931 10932 10933 10933 10934 10935 10935 10937 10939 10941 10943 10945 10948 10952 10955 10958 10960 10962 10964 10966 10968 10971 10973 10974 10974 10974 10971 10970 10966 10964 10960 10957 10951 10943 10938 10933
10920 10921 10921 10922 10923 10923 10924 10925 10926 10927 10928 10929 10929 10929 10930 10930 10931 10932 10934 10936 10938 10941 10945 10948 10951 10954 10957 10959 10962 10965 10967 10969 10971 10973 10977 10971 10969 10966 10965 10961 10959 10954 10948 10943 10938
10917 10918 10919 10919 10919 10920 10921 10921 10921 10922 10923 10925 10925 10925 10925 10926 10926 10926 10927 10929 10931 10933 10937 10939 10943 10947 10951 10954 10957 10960 10962 10964 10967 10970 10971 10969 10968 10966 10966 10961 10960 10957 10951 10946 10944
10914 10915 10916 10916 10916 10916 10917 10918 10918 10919 10919 10920 10921 10921 10921 10921 10922 10922 10922 10922 10924 10926 10930 10932 10935 10939 10944 10947 10951 10956 10957 10959 10963 10967 10970 10966 10966 10966 10965 10962 10959 10957 10954 10950 10947
10911 10912 10912 10912 10913 10913 10913 10913 10914 10914 10915 10916 10916 10917 10917 10917 10917 10917 10917 10918 10919 10920 10924 10927 10930 10932 10936 10940 10945 10948 10951 10954 10958 10962 10965 10965 10963 10964 10964 10962 10960 10958 10956 10952 10949
10907 10908 10909 10909 10909 10909 10909 10910 10910 10910 10911 10910 10910 10910 10910 10911 10911 10912 10911 10912 10913 10914 10918 10921 10924 10926 10930 10933 10937 10941 10945 10948 10953 10957 10960 10963 10963 10961 10961 10960 10959 10958 10957 10955 10951
10903 10904 10905 10905 10905 10905 10905 10905 10905 10905 10904 10903 10902 10902 10903 10903 10904 10905 10905 10905 10906 10908 10913 10916 10920 10923 10926 10928 10930 10934 10939 10944 10948 10953 10956 10960 10962 10957 10958 10958 10958 10957 10957 10956 10954
10899 10900 10901 10901 10901 10900 10900 10899 10899 10898 10896 10895 10895 10895 10896 10895 10896 10897 10897 10898 10900 10902 10907 10911 10915 10918 10922 10925 10926 10930 10935 10939 10940 10947 10952 10955 10956 10955 10955 10955 10956 10956 10956 10956 10955
10896 10896 10896 10896 10896 10895 10895 10894 10893 10892 10889 10889 10889 10889 10889 10888 10888 10888 10889 10890 10892 10895 10900 10905 10910 10915 10918 10923 10923 10924 10929 10933 10935 10940 10945 10951 10953 10951 10951 10952 10953 10955 10955 10955 10956
10892 10892 10892 10891 10890 10890 10889 10888 10887 10886 10884 10885 10883 10883 10882 10882 10881 10880 10881 10881 10883 10886 10892 10898 10904 10910 10914 10920 10911 10916 10920 10927 10929 10934 10939 10945 10947 10948 10947 10949 10952 10951 10952 10954 10955
10888 10888 10888 10887 10886 10885 10885 10884 10882 10881 10879 10880 10877 10877 10875 10875 10874 10873 10872 10873 10875 10878 10883 10890 10895 10901 10908 10913 10918 10908 10914 10921 10925 10928 10933 10939 10942 10943 10944 10947 10947 10949 10951 10951 10952
10884 10884 10884 10884 10882 10881 10880 10879 10878 10877 10874 10873 10872 10873 10871 10870 10869 10867 10865 10865 10867 10870 10874 10878 10884 10891 10897 10903 10900 10900 10908 10916 10921 10925 10929 10933 10936 10938 10939 10943 10944 10946 10948 10949 10950
10879 10879 10879 10879 10878 10877 10876 10874 10873 10871 10870 10869 10869 10869 10868 10866 10865 10862 10859 10858 10859 10861 10864 10868 10873 10878 10885 10893 10896 10899 10906 10912 10917 10922 10926 10928 10931 10932 10934 10934 10938 10942 10945 10946 10948
10875 10875 10874 10874 10874 10873 10871 10869 10869 10868 10867 10866 10866 10865 10864 10862 10860 10857 10853 10852 10852 10853 10855 10858 10863 10869 10876 10883 10888 10893 10900 10905 10911 10917 10921 10923 10930 10928 10923 10927 10930 10935 10939 10942 10944
10871 10870 10870 10869 10868 10868 10867 10866 10865 10864 10865 10863 10862 10861 10860 10858 10856 10854 10850 10846 10846 10847 10848 10851 10855 10861 10867 10874 10880 10887 10889 10896 10902 10908 10910 10915 10917 10912 10915 10920 10922 10926 10932 10935 10939
10866 10865 10865 10864 10863 10863 10862 10862 10861 10860 10860 10859 10858 10855 10855 10854 10852 10849 10846 10843 10841 10842 10843 10845 10849 10853 10858 10863 10868 10873 10879 10886 10892 10899 10902 10907 10905 10909 10911 10914 10916 10919 10924 10928 10933
10860 10860 10859 10859 10858 10857 10856 10856 10856 10856 10854 10853 10853 10851 10850 10849 10848 10846 10843 10840 10838 10838 10838 10839 10842 10846 10850 10855 10860 10865 10872 10878 10883 10886 10890 10892 10895 10902 10904 10908 10911 10914 10917 10921 10926
10854 10853 10853 10851 10851 10850 10850 10850 10850 10849 10848 10848 10847 10847 10845 10844 10843 10842 10841 10838 10836 10835 10834 10835 10837 10840 10844 10848 10853 10857 10863 10867 10871 10875 10880 10882 10885 10894 10895 10900 10904 10907 10910 10914 10917
10846 10846 10845 10845 10844 10843 10843 10842 10843 10842 10841 10841 10840 10840 10840 10839 10838 10837 10837 10836 10833 10832 10831 10831 10833 10836 10839 10842 10845 10849 10853 10859 10862 10865 10869 10871 10877 10881 10887 10890 10895 10899 10902 10906 10910
10839 10838 10838 10837 10835 10835 10835 10835 10836 10835 10834 10834 10833 10833 10833 10833 10833 10832 10832 10832 10830 10829 10828 10828 10829 10832 10834 10837 10840 10843 10847 10850 10854 10857 10859 10863 10866 10871 10875 10880 10884 10889 10893 10897 10901
10830 10829 10828 10828 10827 10826 10826 10827 10827 10827 10828 10828 10826 10826 10826 10826 10826 10827 10827 10827 10827 10825 10825 10824 10825 10827 10829 10831 10834 10837 10840 10843 10846 10849 10852 10854 10857 10864 10864 10868 10872 10878 10882 10886 10891
10821 10820 10818 10817 10817 10816 10816 10817 10818 10819 10818 10818 10818 10818 10819 10819 10819 10820 10821 10821 10822 10821 10820 10821 10821 10822 10824 10826 10829 10832 10834 10836 10839 10842 10844 10847 10849 10854 10857 10860 10862 10867 10871 10875 10880
10810 10809 10807 10807 10806 10805 10806 10806 10807 10808 10808 10809 10809 10810 10810 10810 10811 10811 10813 10816 10815 10816 10817 10816 10818 10818 10819 10822 10824 10826 10828 10830 10833 10835 10838 10840 10840 10846 10848 10851 10855 10856 10860 10863 10867
10799 10799 10797 10796 10795 10795 10796 10796 10797 10798 10798 10798 10798 10799 10799 10800 10801 10802 10803 10807 10809 10810 10812 10812 10813 10815 10815 10819 10820 10822 10823 10825 10826 10828 10831 10833 10832 10840 10839 10842 10844 10844 10847 10850 10854
10787 10786 10785 10786 10785 10784 10785 10785 10786 10787 10788 10789 10789 10790 10790 10789 10790 10791 10793 10796 10799 10802 10803 10805 10806 10808 10810 10812 10814 10816 10817 10818 10820 10821 10823 10826 10828 10828 10832 10832 10831 10832 10834 10837 10841
10775 10774 10772 10773 10772 10771 10772 10773 10774 10774 10776 10776 10778 10779 10780 10779 10779 10783 10784 10785 10787 10790 10793 10795 10798 10800 10802 10803 10805 10807 10809 10811 10812 10813 10816 10818 10819 10821 10822 10822 10821 10821 10821 10822 10826
10760 10759 10758 10758 10757 10757 10757 10758 10758 10759 10761 10758 10765 10764 10766 10767 10770 10769 10772 10774 10776 10780 10782 10784 10787 10791 10792 10795 10798 10799 10801 10804 10804 10805 10806 10807 10808 10811 10812 10812 10810 10808 10806 10807 10809